This demonstration page uses our WeatherBlox Daily Observations layout. Learn more.

Left ArrowRight Arrow

38.88101, -77.10428

Hourly Observations for May 16, 2016

Temp ( °F °C ) Dew Point ( °F °C ) Humidity (%) Winds ( mph kmh ) Pressure ( in mb ) Visibility ( mi km ) Precip ( " mm )
12:52 am 00:52 Mostly Clear 48 8.9 32 undefined 54 54 NE 6 9 30.13 1020 10 16 N/A
1:52 am 01:52 Mostly Clear 48 8.9 33 0.6 56 56 SSW 3 6 30.14 1021 10 16 N/A
2:52 am 02:52 Cloudy 47 8.3 36 2.2 66 66 N N/A 30.14 1021 10 16 N/A
3:52 am 03:52 Mostly Cloudy 48 8.9 34 1.1 58 58 N N/A 30.14 1021 10 16 N/A
4:52 am 04:52 Mostly Cloudy 45 7.2 35 1.7 68 68 SW 5 7 30.15 1021 10 16 N/A
5:52 am 05:52 Mostly Cloudy 45 7.2 35 1.7 68 68 SW 7 11 30.17 1022 10 16 N/A
6:52 am 06:52 Mostly Cloudy 47 8.3 35 1.7 63 63 SW 7 11 30.20 1023 10 16 N/A
7:52 am 07:52 Partly Cloudy 51 10.6 34 1.1 52 52 NNW 14 22 30.25 1024 10 16 N/A
8:52 am 08:52 Mostly Sunny 53 11.7 28 -2.2 38 38 NW 15 24 30.26 1025 10 16 N/A
9:52 am 09:52 Mostly Sunny 54 12.2 24 -4.4 31 31 WNW 15 24 30.27 1025 10 16 N/A
10:52 am 10:52 Mostly Sunny 56 13.3 26 -3.3 32 32 WNW 8 13 30.27 1025 10 16 N/A
11:52 am 11:52 Mostly Sunny 60 15.6 30 -1.1 32 32 NW 12 19 30.26 1025 10 16 N/A
12:52 pm 12:52 Mostly Sunny 61 16.1 31 -0.6 32 32 WNW 13 20 30.24 1024 10 16 N/A
1:52 pm 13:52 Partly Cloudy 63 17.2 31 -0.6 30 30 WNW 17 28 30.22 1023 10 16 N/A
2:52 pm 14:52 Partly Cloudy 65 18.3 32 undefined 29 29 VRB 7 11 30.20 1023 10 16 N/A
3:52 pm 15:52 Partly Cloudy 66 18.9 32 undefined 28 28 N N/A 30.19 1022 10 16 N/A
4:52 pm 16:52 Partly Cloudy 67 19.4 33 0.6 28 28 W 15 24 30.18 1022 10 16 N/A
5:52 pm 17:52 Partly Cloudy 66 18.9 32 undefined 28 28 SW 10 17 30.18 1022 10 16 N/A
6:52 pm 18:52 Partly Cloudy 65 18.3 32 undefined 29 29 SW 12 19 30.19 1022 10 16 N/A
7:52 pm 19:52 Mostly Cloudy 64 17.8 32 undefined 30 30 WSW 8 13 30.19 1022 10 16 N/A
8:52 pm 20:52 Mostly Cloudy 61 16.1 36 2.2 39 39 S 7 11 30.20 1023 10 16 N/A
9:52 pm 21:52 Mostly Cloudy 60 15.6 46 7.8 60 60 S 6 9 30.22 1023 10 16 N/A
10:52 pm 22:52 Mostly Cloudy 59 15 41 5 51 51 S 7 11 30.23 1024 10 16 N/A
11:52 pm 23:52 Mostly Cloudy 59 15 40 4.4 49 49 S 8 13 30.22 1023 10 16 N/A

Powered by AerisWeather